Wind_Speed
8 10 11 13 4 4 6 6 3 14 15 20 22 15 19 16 5 6 10 8 11 11 12 13 16 16 15 14 14 14 15 14 14 15 15 16 17 18 17 17 17 17 16 16 15 14 14 13 12
9 13 14 6 5 7 13 15 15 12 15 18 18 19 16 9 7 12 10 15 13 12 11 13 15 16 15 14 13 13 14 13 13 14 14 15 16 16 16 15 15 16 16 16 14 13 12 11 10
11 12 7 5 2 12 12 17 12 15 10 15 10 15 9 7 8 5 19 17 17 14 14 14 14 14 13 13 12 13 14 13 13 12 12 14 15 15 15 14 16 16 16 14 12 10 9 8 8
8 6 7 3 12 16 15 11 12 22 18 16 16 14 7 15 6 14 21 21 18 16 12 14 13 13 12 12 11 12 12 11 12 13 12 12 14 15 13 14 13 13 11 11 10 8 7 7 6
14 7 8 12 13 11 10 12 10 17 12 20 17 10 6 16 27 25 25 23 20 16 16 13 13 12 12 11 11 11 11 11 10 13 12 13 14 12 11 12 10 9 9 9 8 6 6 5 4
6 7 9 12 16 9 10 15 25 18 22 22 20 9 5 25 26 23 25 22 19 18 14 12 13 12 12 11 11 10 10 10 11 12 10 11 11 10 9 8 8 6 5 5 4 4 4 3 1
11 6 6 12 16 8 9 17 16 14 14 15 18 6 8 21 24 24 17 20 20 16 16 14 11 10 11 11 10 9 10 9 9 9 11 11 10 9 8 7 6 4 3 2 2 2 3 3 2
16 5 10 13 16 10 11 19 15 18 14 15 19 7 8 21 25 25 20 19 17 14 15 16 13 11 9 9 9 9 9 8 7 9 11 13 11 9 6 5 2 2 2 1 2 4 5 6 5
13 4 10 13 16 11 8 17 19 17 14 8 13 20 24 27 25 22 21 18 14 14 14 13 14 13 9 7 7 8 8 8 9 7 6 9 9 7 5 3 3 1 1 1 2 4 5 7 9
9 10 13 14 12 8 12 12 20 18 17 16 21 25 28 29 26 23 17 16 12 13 13 14 10 12 11 8 8 6 6 4 0 2 4 5 3 6 3 2 1 3 1 3 4 7 15 15 11
5 14 14 14 14 14 11 9 7 20 14 19 22 23 24 26 22 22 18 16 17 15 11 11 11 10 9 11 7 6 4 8 3 2 2 6 6 2 4 11 9 6 5 8 6 4 14 23 9
18 16 15 14 11 14 11 11 18 17 19 20 21 23 25 18 21 18 20 22 19 14 13 14 8 4 8 5 3 8 8 15 0 4 6 8 6 3 4 2 3 7 3 3 7 4 7 9 5
16 15 13 14 14 12 17 16 16 17 22 22 21 18 17 15 16 24 22 23 24 19 19 15 11 10 10 9 12 9 6 9 7 4 4 4 5 6 8 5 4 3 3 9 4 7 8 9 12
1 15 14 14 11 17 16 17 14 14 22 21 19 17 17 18 19 16 22 20 23 20 21 19 11 11 7 6 7 6 1 2 3 5 5 4 5 8 11 8 8 4 2 4 3 6 6 7 13
19 16 13 13 13 16 17 18 15 17 18 16 15 15 14 14 22 18 22 23 22 24 23 21 13 12 8 5 6 3 4 2 1 1 2 1 6 8 11 14 14 4 4 5 6 9 10 8 12
29 10 3 10 14 8 14 12 17 18 16 15 17 15 13 15 17 20 20 22 24 23 21 23 15 15 12 9 6 3 1 2 2 2 4 2 6 8 11 11 9 10 8 7 6 8 12 10 9
12 8 17 15 9 15 8 17 18 18 15 15 15 15 14 14 18 16 23 22 21 20 23 20 17 18 15 11 6 5 5 6 6 5 5 2 8 7 13 11 4 7 7 6 8 8 9 11 8
15 20 14 17 9 8 17 18 17 18 18 15 16 15 16 17 18 25 24 23 25 27 26 21 16 15 17 12 11 9 9 8 8 8 8 5 8 9 10 15 16 11 9 9 11 5 7 9 8
28 14 25 19 12 5 4 17 18 16 15 17 16 15 14 15 22 27 25 23 22 22 23 21 20 20 13 14 12 12 13 13 11 10 11 7 8 9 7 12 10 11 10 3 5 5 11 13 10
9 24 14 15 9 2 14 20 18 17 15 17 17 17 17 17 16 20 29 30 26 26 25 24 23 19 21 17 15 14 10 11 7 5 7 11 11 9 9 8 9 9 8 9 4 5 10 12 16
20 13 7 11 9 8 9 19 18 17 14 16 17 17 17 17 19 16 20 24 27 28 27 26 25 22 23 19 16 14 14 14 14 14 16 18 11 4 7 8 9 11 10 10 8 5 9 15 18
16 11 6 10 7 6 12 6 15 19 15 17 17 17 17 17 18 17 21 22 23 23 26 27 27 26 23 23 21 16 16 14 17 15 15 9 4 7 8 9 10 10 10 13 10 11 11 14 17
12 11 13 7 6 9 15 5 12 19 17 17 18 19 19 18 19 20 23 25 25 25 25 26 26 26 25 23 23 21 16 16 17 15 16 12 12 14 17 13 7 13 11 12 13 14 14 16 20
11 8 4 2 9 10 13 7 8 17 16 19 20 20 20 19 19 19 25 26 24 24 24 25 26 26 25 23 25 26 20 20 18 16 13 14 14 10 18 12 16 22 14 13 14 15 15 16 18
20 16 6 8 10 11 12 12 9 17 19 18 18 21 20 20 19 19 20 24 26 26 26 25 29 27 26 26 24 24 28 20 15 18 14 13 14 17 13 6 8 20 16 11 12 13 16 18 18
21 18 11 10 11 13 6 7 7 16 15 19 19 20 21 21 19 19 21 25 28 27 27 27 31 28 26 25 25 23 22 22 19 20 18 18 17 15 11 8 8 10 9 10 11 13 15 18 19
22 19 15 20 17 9 8 6 17 17 17 13 20 21 21 20 20 20 21 27 28 28 29 28 30 29 28 26 24 23 21 21 17 18 17 15 15 14 11 10 6 7 9 11 12 13 17 19 17
23 16 18 14 17 14 10 13 10 15 13 12 10 18 21 21 21 20 18 27 28 28 28 28 28 31 28 26 24 23 21 19 19 20 14 15 14 14 11 7 7 9 12 14 15 14 13 17 16
18 20 16 19 15 14 5 9 14 16 14 14 17 12 18 21 20 20 19 29 29 29 28 28 27 30 27 25 23 23 20 19 18 16 14 10 5 1 3 6 9 11 11 8 10 13 15 16 17
24 23 22 13 19 14 10 11 14 17 15 12 9 7 13 20 19 19 19 28 29 27 29 29 28 27 28 25 21 20 17 15 15 11 6 5 3 3 4 5 6 6 8 10 14 14 12 17 20
Wind_Direction
203 189 206 216 261 205 162 143 229 76 76 71 73 90 84 52 55 128 147 134 135 127 129 134 124 121 118 118 112 111 103 96 100 99 99 98 98 98 101 98 100 104 102 101 101 99 97 97 98
214 223 225 278 275 248 99 132 72 64 105 89 71 84 71 73 61 103 118 144 139 133 127 143 129 127 121 122 111 108 105 106 103 102 106 104 103 97 99 102 107 104 105 106 106 105 101 100 98
245 262 268 229 136 42 68 67 103 109 96 92 92 65 64 100 77 98 130 137 133 133 129 136 131 124 120 117 118 112 109 105 102 105 102 106 105 103 107 106 106 108 111 111 109 110 107 101 99
251 223 234 17 41 38 71 82 107 80 83 88 106 79 80 118 97 126 131 136 132 134 134 132 126 125 124 120 115 117 106 101 106 101 103 104 104 105 107 106 110 114 116 114 113 111 105 99 90
244 281 288 90 68 45 60 66 32 104 95 100 88 90 70 88 116 123 129 137 140 138 134 129 128 122 119 118 120 108 101 107 100 108 102 100 101 106 113 115 116 115 119 116 115 114 107 103 99
302 243 234 86 84 63 91 102 92 79 96 99 97 99 81 125 126 130 129 131 130 124 121 122 126 125 128 122 114 110 109 120 113 115 114 113 108 111 118 120 122 117 119 121 120 128 124 122 106
317 300 316 93 95 77 121 120 99 102 104 106 124 91 123 130 137 136 127 129 133 133 137 128 126 124 122 122 116 114 113 122 134 130 130 126 128 127 125 124 125 123 124 159 171 208 220 203 170
181 238 21 81 94 106 76 92 114 106 112 115 139 134 146 146 136 137 127 119 122 119 131 129 123 116 112 115 127 125 126 134 150 151 148 137 129 122 115 131 118 138 160 206 272 260 250 243 226
300 243 59 48 94 118 132 88 88 81 97 96 93 129 136 139 139 134 138 132 123 127 128 134 128 128 130 123 135 132 138 131 127 146 155 163 157 130 160 178 265 140 90 52 303 284 260 249 257
295 85 67 83 99 90 103 118 129 123 118 97 111 121 141 143 147 146 146 138 134 128 124 131 132 142 132 143 131 133 140 174 280 54 333 223 187 115 174 323 332 327 359 338 316 315 302 279 274
85 89 96 85 96 97 106 143 167 125 129 134 140 137 145 151 154 162 153 147 155 146 141 169 155 169 169 141 186 209 295 117 324 143 20 97 82 355 42 18 283 315 348 314 278 354 313 279 302
89 86 106 118 126 101 117 89 61 92 122 129 142 144 148 156 159 158 150 163 166 176 171 178 168 137 146 82 3 316 224 73 235 347 52 41 20 53 62 328 296 240 315 321 285 104 272 281 340
96 95 102 96 97 119 91 87 88 91 108 125 142 149 151 147 154 160 169 174 180 187 181 186 162 154 132 101 92 199 167 142 163 151 83 28 4 346 322 309 279 306 286 275 333 339 319 319 333
46 105 108 108 122 109 124 123 110 112 120 134 146 161 159 164 166 161 160 173 192 192 180 179 169 194 157 124 180 220 60 122 61 130 32 12 339 334 327 313 316 272 255 332 287 283 292 307 311
219 125 134 151 150 151 143 110 114 130 133 145 152 161 162 175 156 180 163 176 184 188 178 175 179 171 184 165 205 265 198 35 160 309 152 358 337 309 302 327 313 360 348 2 304 287 307 310 320
37 15 342 154 145 159 224 115 132 143 147 151 154 162 168 175 178 175 170 182 184 183 189 182 177 178 188 203 206 234 35 281 271 293 300 297 330 315 304 325 357 304 293 337 336 331 322 329 341
56 309 282 280 148 166 166 129 145 155 153 157 163 169 173 186 167 185 170 176 189 190 195 198 184 181 190 200 213 237 251 259 277 294 310 40 336 306 320 318 301 300 327 335 321 293 313 325 302
168 195 229 250 172 241 123 129 152 173 160 163 167 172 177 177 178 179 185 191 188 201 204 186 184 201 193 202 207 227 251 255 260 268 281 332 303 309 307 323 332 342 354 312 301 319 310 303 279
237 227 206 221 171 133 324 146 155 177 173 162 165 169 183 174 172 177 185 189 191 206 184 184 195 205 202 206 216 223 232 244 258 265 269 282 295 296 302 314 347 331 338 286 272 302 293 288 298
123 251 175 138 160 239 169 152 157 174 186 164 168 169 177 175 169 171 179 182 186 202 189 190 198 203 208 214 219 233 242 254 278 286 292 284 274 276 295 309 317 327 323 300 306 253 279 295 289
232 210 118 128 168 242 171 151 153 172 180 159 170 167 175 171 166 170 182 181 185 191 187 193 198 204 209 211 224 236 252 267 283 283 273 266 254 244 286 306 304 312 310 307 251 268 266 281 297
243 105 212 134 218 215 199 171 166 164 181 166 169 167 176 169 167 169 180 186 193 190 188 195 200 205 212 213 221 227 226 234 245 263 271 252 212 265 273 267 288 281 280 282 287 275 268 275 280
247 193 169 208 260 242 186 194 178 164 181 178 176 172 177 175 173 175 184 186 192 192 193 195 195 201 208 213 216 228 238 243 259 267 270 275 259 257 246 230 257 284 278 270 270 272 278 273 285
221 265 54 249 258 250 240 145 187 173 180 179 182 174 173 177 178 173 180 180 191 191 193 189 193 200 205 210 214 219 226 229 242 258 266 260 267 278 259 217 349 291 268 262 274 284 286 290 291
233 211 196 224 231 242 229 174 154 184 176 180 177 173 176 169 177 173 175 178 187 192 189 186 186 195 202 208 213 218 225 230 237 247 265 267 282 289 307 207 331 257 258 278 288 297 303 312 310
225 230 230 217 227 234 200 166 138 160 168 175 173 176 173 177 177 181 175 181 185 192 189 189 183 190 198 206 213 216 222 226 236 243 251 261 270 292 316 324 295 264 289 300 309 308 312 313 312
215 230 244 246 246 268 166 180 158 158 161 168 176 172 174 176 177 179 180 181 183 189 191 191 182 187 195 203 209 214 216 217 225 239 253 258 273 285 296 327 325 337 339 328 324 322 314 315 316
238 212 228 247 261 273 235 189 207 167 160 171 195 178 172 172 177 176 182 180 182 186 189 191 189 187 193 198 207 210 213 219 233 245 256 260 276 289 300 329 353 334 328 324 324 335 332 319 323
217 236 215 241 241 245 188 256 194 164 177 196 188 195 174 175 180 177 180 176 178 183 188 190 194 185 192 198 206 206 207 214 223 231 243 260 262 3 341 342 338 335 333 345 338 330 323 338 340
212 222 230 224 242 264 293 309 158 162 175 180 168 202 190 176 182 177 177 170 175 183 183 186 190 187 187 192 200 204 203 212 220 222 192 161 75 39 13 349 0 1 342 352 351 351 355 350 342
Height
751 755 756 752 774 758 779 791 765 751 760 753 752 768 785 787 801 825 816 817 819 819 821 824 824 825 826 827 829 830 830 831 831 831 832 833 833 834 834 835 836 836 837 838 838 838 838 838 837
750 750 748 745 766 771 760 750 762 754 751 750 759 765 779 805 802 810 818 820 822 823 824 827 828 829 830 830 832 832 832 833 834 834 835 835 835 835 836 837 838 839 839 840 841 841 840 839 839
748 745 747 746 743 756 758 741 748 745 746 755 769 769 784 808 807 813 818 821 825 827 827 830 831 832 833 834 834 834 834 835 836 837 838 838 837 837 839 840 841 841 841 841 842 842 841 840 839
744 738 738 739 751 744 741 737 739 747 750 757 765 792 798 805 810 815 821 824 825 828 832 833 833 835 835 836 837 837 837 838 839 840 841 840 840 840 841 842 843 843 843 842 842 843 842 841 840
739 733 742 741 751 741 736 737 738 756 761 770 774 805 805 812 815 819 823 827 829 832 833 835 836 836 837 838 838 839 839 840 842 842 842 842 843 844 844 842 844 845 844 844 844 844 843 841 840
745 730 762 750 753 744 737 740 749 758 769 778 790 802 812 816 818 822 825 829 831 833 834 836 837 838 838 839 839 839 840 841 841 841 842 843 843 844 844 843 843 844 845 844 844 844 843 841 840
750 752 747 737 752 754 743 737 749 764 773 780 785 808 815 817 821 824 828 829 832 834 835 837 838 839 839 838 839 840 841 842 841 840 840 841 842 843 843 843 843 843 844 843 843 843 842 840 838
740 735 731 729 751 764 739 746 747 763 778 773 782 809 816 817 821 826 829 832 834 836 837 837 839 840 840 841 842 842 843 842 841 838 837 835 837 840 840 842 842 842 842 843 844 844 843 841 838
704 741 748 743 749 757 740 751 752 758 772 776 778 796 808 816 821 827 831 834 836 837 838 839 838 840 843 844 844 844 845 844 842 845 850 846 836 837 840 842 844 841 841 842 842 842 841 840 840
731 734 742 729 736 745 739 749 756 769 779 790 792 802 810 816 822 826 829 833 837 837 838 839 839 841 843 846 845 846 847 848 847 855 835 844 839 838 845 846 846 845 842 841 840 841 843 841 837
717 738 729 731 730 736 747 749 739 758 783 788 798 803 809 816 820 824 827 833 836 838 839 838 840 845 845 846 846 847 848 849 847 850 851 847 835 838 844 842 844 846 841 838 839 835 835 840 840
732 723 728 733 731 739 747 743 756 758 772 781 794 801 808 813 817 821 827 831 834 837 838 839 841 846 846 848 849 847 850 850 849 847 845 841 837 837 843 841 841 843 838 836 835 836 830 841 842
729 731 729 729 734 739 743 759 767 772 775 787 797 802 807 813 817 821 826 829 833 835 837 838 841 844 850 848 848 849 852 852 852 851 848 845 840 837 836 835 834 833 832 835 837 838 837 835 839
729 731 736 737 740 742 756 761 768 777 778 791 799 802 805 810 813 818 824 828 831 832 834 837 840 843 847 849 851 853 851 851 851 850 848 847 844 840 833 830 833 832 829 832 836 837 835 833 831
732 743 741 740 739 746 741 767 781 778 783 795 797 801 805 808 811 816 820 825 828 830 832 835 839 843 847 850 851 851 851 850 849 848 846 845 844 839 836 843 842 842 839 829 831 834 833 832 829
764 768 779 740 734 738 740 788 774 774 783 790 795 800 804 806 810 815 819 822 825 827 830 834 836 841 844 847 849 848 848 847 847 846 845 844 843 838 837 844 830 836 839 829 830 833 833 832 830
807 830 796 766 723 733 740 775 768 768 777 788 793 797 801 804 809 813 817 821 823 826 829 832 835 838 842 846 847 847 848 848 847 847 845 844 842 839 835 842 843 841 832 826 829 832 832 831 829
820 812 798 786 739 729 743 759 763 761 766 779 784 788 790 796 801 810 813 816 820 824 827 830 834 837 839 842 844 845 846 847 846 845 845 843 842 840 836 832 831 829 827 829 832 832 832 831 829
759 770 775 749 723 735 766 759 758 756 757 767 774 781 783 786 791 800 807 812 817 821 824 828 832 835 837 840 842 844 844 843 843 843 842 841 841 840 839 836 834 833 831 831 831 832 832 830 828
755 757 747 730 722 731 738 751 749 750 751 755 763 773 776 779 786 792 800 807 812 816 820 824 829 833 835 838 840 842 842 841 841 839 839 839 839 840 841 840 839 838 836 834 832 831 831 829 828
725 724 732 740 729 723 730 751 752 746 743 745 751 759 764 771 780 788 794 798 804 810 814 819 824 829 832 836 838 840 840 840 839 838 837 835 837 839 841 841 841 840 839 836 833 831 831 829 825
734 715 719 729 742 762 727 778 749 745 749 746 749 755 759 764 772 781 789 795 799 804 810 815 820 824 828 831 834 836 837 837 836 836 834 834 836 838 839 836 837 836 836 838 836 832 829 827 824
724 702 717 726 737 739 740 762 748 736 753 748 743 747 751 757 764 774 782 789 795 800 805 810 815 819 823 826 829 832 833 834 834 833 832 833 834 834 828 823 831 837 835 834 833 830 827 824 824
701 716 719 726 736 766 737 749 758 743 741 737 733 737 741 750 757 766 775 783 790 795 799 805 810 814 818 821 823 826 828 830 831 830 829 830 831 828 818 810 825 834 833 831 831 830 826 823 823
711 730 768 780 775 772 718 744 739 717 715 719 726 729 733 740 749 758 767 775 783 787 793 799 804 808 813 816 819 821 824 826 827 827 827 828 829 828 823 822 817 829 831 830 830 827 824 824 823
720 725 756 794 778 754 717 747 733 700 697 701 707 715 723 733 741 749 758 767 775 781 787 792 797 802 808 811 814 817 820 823 825 826 826 826 827 827 829 828 828 828 828 828 827 824 823 822 820
720 734 713 740 724 742 732 717 702 696 701 702 704 708 718 724 731 740 748 758 767 775 780 786 791 797 801 806 811 814 817 820 822 823 823 823 823 824 825 824 825 825 826 825 823 822 821 820 817
705 701 747 734 775 778 739 734 735 713 710 705 706 706 709 715 722 731 740 749 759 768 774 781 785 790 796 802 806 810 813 817 819 820 820 821 822 822 822 822 822 822 822 822 821 819 819 818 816
716 720 720 723 731 758 766 747 688 699 697 702 699 699 702 707 713 721 730 741 751 760 768 774 781 786 792 797 802 806 810 813 815 817 819 821 822 821 823 822 822 822 822 822 821 820 819 816 814
696 712 713 739 751 726 729 732 667 678 684 686 692 692 693 698 704 711 720 731 743 751 759 767 774 780 785 792 798 803 807 810 812 815 817 819 820 822 823 823 823 823 823 822 821 819 817 815 813